Showing default

OPS 0082 (TRANSIT 13), 2176

Orbit data source: Space-Track

OPS 0082 (TRANSIT 13), 2176 is a payload satellite owned by USN NAVAIR (US) in LEO that was launched on Thu, 19 May 1966 UTC via an SCOUT A launch vehicle from the Air Force Western Test Range (AFWTR). Payload-class satellites include a variety of spacecraft equipped with specific instruments for various scientific and technological missions. These include communications satellites like Starlink; space stations such as the ISS; scientific satellites like the Hubble; Earth observation satellites from companies like Planet Labs, Umbra, and HawkEye 360; GPS; miniature CubeSats for education and research; and military/defense satellites.

Loading next visibility...
Identifier
2176, 1966-041A
Orbit
LEO
Country
Flag of USUS
Related business
Manufacturer
APL
Mission
Spacecraft
Bus & Motor
TRANSIT 5, Unknown motor
Mass
51 kg wet, 51 kg dry
Launch date (UTC)
1966-05-19 (60 years ago)
Launch vehicle
SCOUT A
Launch site
Air Force Western Test Range (AFWTR)
Object type
Payload
Rocket body
Debris
Shape & HBR
OCT CYL + 4 PAN + ANT, 15.0 m
Radar Cross Section
Medium (>0.1 m² and <1 m²)

Expand to show TLE details & history
Last TLE update: 18 hours ago

TLE from 18 hours ago
0 OPS 0082 (TRANSIT 13)
1 02176U 66041A   26207.64936208  .00000160  00000-0  93008-4 0  9999
2 02176  90.2266  84.2169 0062148 344.0551  15.8672 14.04342403 72975
Epoch: 2026-07-26T15:35Z
TLE epoch observation values (Epoch: 2026-07-26T15:35:04.883Z)
Latitude
-0.00006°
Longitude
-93.8977°
Altitude
838.459 km
Speed
7.456 km/s
True Right ascension
05h 36m 52s
True Declination
0° 00' 00"
Sunlit
Object was in daylight at epoch
Visualization orbit readout
Latitude
Unknown
Longitude
Unknown
Altitude
Unknown
Speed
Unknown
Apparent Right ascension
Unknown
Apparent Declination
Unknown
Sunlit
N/A
Visualization observer readout
Local Sidereal Time
23:11:33
Azimuth
Unknown
Elevation
Unknown
Doppler factor
Unknown
Orbital elements
Apogee altitude
920.849 km
Perigee altitude
830.686 km
Semi-major axis
7,253.905 km
Eccentricity
0.00621
Inclination
90.2266°
RAAN
84.2169°
Arg. of periapsis
344.0551°
True anomaly
16.06338°
Mean anomaly
15.8672°
Eccentric anomaly
15.96514°
Mean motion
3.51306 °/min
Orbital period
102.47 mins
BSTAR
0.000093008
Loading maneuver chart data...
Computing Atmospheric mass density...
Loading historical data...
Loading historical data...
Loading historical data...
Loading historical data...
Loading historical data...
Loading historical data...
Loading historical data...

Documentation

Showing up to 5 results
|